Location: Caltech
(34.1382°N, 118.1253°W)
Time: 16:50:42
(UTC-07:00)

Iridium 3 - Visible Passes

Search period start: 22 July 2014 00:00
Search period end: 01 August 2014 00:00
Orbit: 776 x 779 km, 86.4° (Epoch: 22 July)

Date Brightness Start Highest point End Pass type
(mag) Time Alt. Az. Time Alt. Az. Time Alt. Az.
22 Jul 5.9 03:20:13 49° SE 03:21:18 61° E 03:26:26 10° N visible
22 Jul 7.4 05:00:43 11° W 05:02:24 12° WNW 05:04:27 10° NW visible
23 Jul 6.9 02:47:05 29° ESE 02:47:56 31° E 02:52:27 10° NNE visible
23 Jul 6.7 04:27:34 23° W 04:28:36 24° W 04:32:46 10° NNW visible
24 Jul 7.8 02:13:56 16° E 02:14:40 16° E 02:17:47 10° NE visible
24 Jul 5.8 03:54:25 44° WSW 03:54:55 46° W 03:59:55 10° NNW visible
25 Jul 5.4 03:21:15 87° S 03:21:22 90° W 03:26:36 10° N visible
26 Jul 6.3 02:48:05 46° E 02:48:05 46° E 02:52:53 10° NNE visible
26 Jul 7.2 04:28:34 16° W 04:28:51 16° WNW 04:32:02 10° NW visible
27 Jul 7.3 02:14:53 24° ENE 02:14:53 24° ENE 02:18:42 10° NNE visible
27 Jul 6.5 03:55:22 31° WNW 03:55:22 31° WNW 03:59:41 10° NNW visible
28 Jul 8.1 01:41:41 12° ENE 01:41:41 12° ENE 01:43:22 10° ENE visible
28 Jul 5.8 03:22:10 55° NW 03:22:10 55° NW 03:26:37 10° N visible
29 Jul 6.1 02:48:58 55° NNE 02:48:58 55° NNE 02:53:08 10° N visible
29 Jul 7.7 04:29:27 10° WNW 04:29:27 10° WNW 04:30:01 10° WNW visible
30 Jul 7.0 02:15:44 31° ENE 02:15:44 31° ENE 02:19:16 10° NNE visible
30 Jul 7.1 03:56:13 20° WNW 03:56:13 20° WNW 03:59:12 10° NNW visible
31 Jul 7.8 01:42:30 17° ENE 01:42:30 17° ENE 01:44:47 10° NE visible
31 Jul 6.6 03:22:59 33° NW 03:22:59 33° NW 03:26:30 10° NNW visible
